Location: Waco, TX
(31.5480°N, 97.1670°W)
Time: 18:05:42
(UTC-06:00)

ISS - Pass Details

Date: 16 November 2017
Orbit: 401 x 407 km, 51.6° (Epoch: 25 November)

Event Time Altitude Azimuth Distance (km) Brightness Sun altitude
Rises 21:20:46 0° 192° (SSW) 2,305 - -49.3°
Reaches altitude 10° 21:23:18 10° 171° (S) 1,449 - -49.8°
Maximum altitude 21:25:33 17° 127° (SE) 1,087 - -50.3°
Drops below altitude 10° 21:27:48 10° 83° (E) 1,453 - -50.7°
Sets 21:30:20 0° 63° (ENE) 2,314 - -51.3°
